SL-24 DEB

基本信息
目录编号:
33318
目录名称:
SL-24 DEB
国际标识:
2008-040G
轨道中心:
EARTH
物体状态:
在轨
发射日期:
2008-08-29 UTC
轨道信息
数据来源: 国际轨道数据
星历时间: 2026-09-03T22:30:21+0800
半长轴: 6863.701km
偏心率: 0.0011027
轨道倾角: 97.991°
近地点辐角: 174.256°
升交点赤经: 193.171°
平近点角: 185.881°
近地点: 477.995km
远地点: 493.133km
周期: 94.319分钟
每日圈数: 15.267408
详细信息
发射场:
TTMTR
轨道高度:
LEO
数据来源:
AOE Integration Group
参考系:
TEME
时间系统:
UTC
历元类型:
SGP4
2D轨道图
3D轨道图
轨道高度分析图
轨道倾角分析图
轨道综合分析图
查看轨道综合分析图